STARLINK-36653, 67842

Orbit data source: Space-Track

STARLINK-36653, 67842 is a payload satellite owned by SpaceX/Seattle (US) in LEO that was launched on Mon, 16 Feb 2026 UTC via an FALCON 9 launch vehicle from the Air Force Eastern Test Range (AFETR). Payload-class satellites include a variety of spacecraft equipped with specific instruments for various scientific and technological missions. These include communications satellites like Starlink; space stations such as the ISS; scientific satellites like the Hubble; Earth observation satellites from companies like Planet Labs, Umbra, and HawkEye 360; GPS; miniature CubeSats for education and research; and military/defense satellites.

Loading next visibility...
Identifier
67842, 2026-033X
Orbit
LEO
Country
Flag of USUS
Related business
Manufacturer
SpaceX/Seattle
Mission
Operational Commercial Communications
Bus & Motor
STARLINK V2MO, Unknown motor
Mass
575 kg wet, ~530 kg dry
Launch date (UTC)
2026-02-16 (4 months ago)
Launch vehicle
FALCON 9
Launch site
Air Force Eastern Test Range (AFETR)
Object type
Payload
Rocket body
Debris
Shape & HBR
Box + 2 Pan, 17.7 m
Radar Cross Section
36.964 m², Large (>1 m²)

Expand to show TLE details & history
Last TLE update: 20 hours ago

TLE from 20 hours ago
0 STARLINK-36653
1 67842U 26033X   26171.00862233  .00015852  00000-0  58401-3 0  9994
2 67842  43.0003  49.0968 0001296 275.3098  84.7606 15.27597374 20325
Epoch: 2026-06-20T00:12Z
TLE epoch observation values (Epoch: 2026-06-20T00:12:24.969Z)
Latitude
0.00001°
Longitude
137.76336°
Altitude
482.691 km
Speed
7.626 km/s
True Right ascension
03h 16m 23s
True Declination
0° 00' 00"
Sunlit
Object was in daylight at epoch
Visualization orbit readout
Latitude
Unknown
Longitude
Unknown
Altitude
Unknown
Speed
Unknown
Apparent Right ascension
Unknown
Apparent Declination
Unknown
Sunlit
N/A
Visualization observer readout
Local Sidereal Time
07:24:31
Azimuth
Unknown
Elevation
Unknown
Doppler factor
Unknown
Orbital elements
Apogee altitude
485.832 km
Perigee altitude
484.053 km
Semi-major axis
6,863.079 km
Eccentricity
0.00013
Inclination
43.0003°
RAAN
49.0968°
Arg. of periapsis
275.3098°
True anomaly
84.77539°
Mean anomaly
84.7606°
Eccentric anomaly
84.76799°
Mean motion
3.81737 °/min
Orbital period
94.31 mins
BSTAR
0.00058401
Loading maneuver chart data...
Computing Atmospheric mass density...
Loading historical data...
Loading historical data...
Loading historical data...
Loading historical data...
Loading historical data...
Loading historical data...
Loading historical data...

Documentation

Showing up to 5 results
|